TAP036 SBFZ-LPPT

Flight info

Callsign TAP036
Flight time 6h 40m
Altitude 39000
Route TOGAB UZ18 ARTIG UN866 DEKON/N0462F400 UN866 AMDOL/N0455F390 UN866 TENPA N866 GOMER/N0459F400 N866 KONBA UN866 BEXAL DCT LUVUP
Aircraft A332/H-SDE3GHIJ2J3J5M1RVWXY/LB2D1

Departure

Time 2026-05-06 16:55
Airport Pinto Martins International Airport (SBFZ)

Arrival

Time 2026-05-06 23:35
Airport Lisbon Humberto Delgado Airport (LPPT)
Time Latitude Longitude Altitude Speed Heading
2026-05-06 16:28 -3.77780 -38.54191 95 ft 0 kts 130°
2026-05-06 16:47 -3.77779 -38.54192 95 ft 2 kts 130°
2026-05-06 16:47 -3.77762 -38.54211 96 ft 3 kts 130°
2026-05-06 16:47 -3.77759 -38.54215 95 ft 0 kts 130°
2026-05-06 16:48 -3.77659 -38.54162 95 ft 0 kts 287°
2026-05-06 16:50 -3.77659 -38.54163 95 ft 1 kts 287°
2026-05-06 16:50 -3.77656 -38.54175 96 ft 4 kts 286°
2026-05-06 16:50 -3.77652 -38.54187 95 ft 0 kts 285°
2026-05-06 16:51 -3.77649 -38.54202 95 ft 7 kts 284°
2026-05-06 16:51 -3.77630 -38.54274 97 ft 14 kts 284°
2026-05-06 16:51 -3.77594 -38.54360 95 ft 12 kts 321°
2026-05-06 16:52 -3.77533 -38.54378 96 ft 9 kts 348°
2026-05-06 16:52 -3.77528 -38.54379 96 ft 0 kts 348°
2026-05-06 16:52 -3.77527 -38.54379 96 ft 1 kts 348°
2026-05-06 16:53 -3.77509 -38.54382 95 ft 3 kts 351°
2026-05-06 16:53 -3.77462 -38.54382 97 ft 8 kts
2026-05-06 16:53 -3.77385 -38.54360 101 ft 14 kts 25°
2026-05-06 16:53 -3.77355 -38.54293 100 ft 6 kts 103°
2026-05-06 16:54 -3.77377 -38.54220 100 ft 21 kts 106°
2026-05-06 16:54 -3.77465 -38.53890 97 ft 78 kts 104°
2026-05-06 16:54 -3.77650 -38.53195 94 ft 127 kts 105°
2026-05-06 16:54 -3.77904 -38.52226 284 ft 151 kts 108°
2026-05-06 16:55 -3.78168 -38.51232 924 ft 147 kts 108°
2026-05-06 16:55 -3.78442 -38.50245 1533 ft 147 kts 109°
2026-05-06 16:55 -3.78729 -38.49217 1932 ft 162 kts 109°
2026-05-06 16:55 -3.78991 -38.48040 2162 ft 187 kts 94°
2026-05-06 16:56 -3.78513 -38.46737 2336 ft 217 kts 58°
2026-05-06 16:56 -3.77511 -38.45497 2514 ft 242 kts 53°
2026-05-06 16:56 -3.76381 -38.44154 2850 ft 259 kts 54°
2026-05-06 16:56 -3.75229 -38.42722 3362 ft 269 kts 56°
2026-05-06 16:57 -3.74071 -38.41227 4021 ft 273 kts 57°
2026-05-06 16:57 -3.72922 -38.39713 4825 ft 272 kts 57°
2026-05-06 16:57 -3.71783 -38.38193 5601 ft 274 kts 57°
2026-05-06 16:57 -3.70637 -38.36651 6358 ft 277 kts 57°
2026-05-06 16:58 -3.69487 -38.35099 7111 ft 278 kts 57°
2026-05-06 16:58 -3.68349 -38.33559 7872 ft 279 kts 56°
2026-05-06 16:58 -3.67196 -38.31999 8703 ft 279 kts 56°
2026-05-06 16:58 -3.66037 -38.30428 9482 ft 282 kts 55°
2026-05-06 16:59 -3.64868 -38.28844 10190 ft 285 kts 55°
2026-05-06 16:59 -3.63654 -38.27197 10514 ft 304 kts 55°
2026-05-06 16:59 -3.62361 -38.25441 10761 ft 323 kts 55°
2026-05-06 16:59 -3.61455 -38.24212 10924 ft 334 kts 55°
2026-05-06 17:00 -3.59571 -38.21660 11572 ft 345 kts 55°
2026-05-06 17:00 -3.58624 -38.20378 11990 ft 347 kts 55°
2026-05-06 17:00 -3.56695 -38.17766 12827 ft 350 kts 56°
2026-05-06 17:00 -3.55733 -38.16464 13224 ft 352 kts 56°
2026-05-06 17:01 -3.54269 -38.14487 13819 ft 355 kts 56°
2026-05-06 17:01 -3.52786 -38.12479 14300 ft 359 kts 56°
2026-05-06 17:01 -3.50804 -38.09790 14927 ft 365 kts 55°
2026-05-06 17:01 -3.49784 -38.08407 15258 ft 367 kts 55°
2026-05-06 17:02 -3.48256 -38.06335 15760 ft 371 kts 55°
2026-05-06 17:02 -3.46722 -38.04256 16249 ft 373 kts 55°
2026-05-06 17:02 -3.45170 -38.02153 16714 ft 377 kts 55°
2026-05-06 17:02 -3.43604 -38.00033 17216 ft 379 kts 54°
2026-05-06 17:03 -3.42033 -37.97906 17659 ft 384 kts 55°
2026-05-06 17:03 -3.40433 -37.95738 18119 ft 386 kts 54°
2026-05-06 17:03 -3.38832 -37.93570 18536 ft 390 kts 54°
2026-05-06 17:03 -3.37229 -37.91401 18875 ft 393 kts 54°
2026-05-06 17:04 -3.35601 -37.89197 19287 ft 395 kts 54°
2026-05-06 17:04 -3.33960 -37.86976 19638 ft 399 kts 53°
2026-05-06 17:04 -3.32306 -37.84736 20065 ft 401 kts 53°
2026-05-06 17:04 -3.30639 -37.82479 20399 ft 405 kts 53°
2026-05-06 17:05 -3.28960 -37.80207 20797 ft 407 kts 53°
2026-05-06 17:05 -3.27379 -37.78067 21095 ft 410 kts 53°
2026-05-06 17:05 -3.25799 -37.75863 21474 ft 412 kts 54°
2026-05-06 17:06 -3.24184 -37.73482 21812 ft 416 kts 55°
2026-05-06 17:06 -3.22586 -37.71049 22180 ft 418 kts 56°
2026-05-06 17:06 -3.20996 -37.68599 22517 ft 421 kts 55°
2026-05-06 17:06 -3.19398 -37.66133 22877 ft 423 kts 56°
2026-05-06 17:07 -3.17785 -37.63652 23192 ft 427 kts 56°
2026-05-06 17:07 -3.16156 -37.61157 23533 ft 429 kts 55°
2026-05-06 17:07 -3.14511 -37.58648 23794 ft 433 kts 54°
2026-05-06 17:07 -3.12851 -37.56123 24011 ft 437 kts 55°
2026-05-06 17:08 -3.11172 -37.53573 24253 ft 440 kts 55°
2026-05-06 17:08 -3.09500 -37.51033 24489 ft 444 kts 56°
2026-05-06 17:08 -3.07796 -37.48447 24748 ft 447 kts 56°
2026-05-06 17:08 -3.06084 -37.45846 24980 ft 450 kts 56°
2026-05-06 17:09 -3.04352 -37.43214 25260 ft 452 kts 56°
2026-05-06 17:09 -3.02614 -37.40573 25453 ft 457 kts 56°
2026-05-06 17:09 -3.00876 -37.37933 25746 ft 459 kts 56°
2026-05-06 17:10 -2.99199 -37.35387 25925 ft 463 kts 56°
2026-05-06 17:10 -2.98631 -37.34524 26004 ft 464 kts 56°
2026-05-06 17:10 -2.97539 -37.32863 26196 ft 464 kts 57°
2026-05-06 17:10 -2.95763 -37.30147 26407 ft 468 kts 56°
2026-05-06 17:11 -2.93970 -37.27421 26728 ft 469 kts 57°
2026-05-06 17:11 -2.92163 -37.24681 26919 ft 473 kts 57°
2026-05-06 17:11 -2.90348 -37.21933 27212 ft 475 kts 56°
2026-05-06 17:11 -2.88522 -37.19164 27442 ft 477 kts 57°
2026-05-06 17:12 -2.86687 -37.16381 27740 ft 479 kts 57°
2026-05-06 17:12 -2.84849 -37.13594 27957 ft 482 kts 57°
2026-05-06 17:12 -2.83003 -37.10791 28195 ft 484 kts 57°
2026-05-06 17:12 -2.81163 -37.07998 28440 ft 486 kts 57°
2026-05-06 17:13 -2.79301 -37.05171 28685 ft 488 kts 57°
2026-05-06 17:13 -2.77424 -37.02322 28892 ft 491 kts 57°
2026-05-06 17:13 -2.75542 -36.99465 29107 ft 493 kts 57°
2026-05-06 17:13 -2.73653 -36.96598 29347 ft 495 kts 57°
2026-05-06 17:14 -2.71753 -36.93714 29578 ft 497 kts 57°
2026-05-06 17:14 -2.69846 -36.90820 29797 ft 500 kts 57°
2026-05-06 17:14 -2.67931 -36.87915 29977 ft 502 kts 57°
2026-05-06 17:14 -2.66001 -36.84987 30162 ft 504 kts 57°
2026-05-06 17:15 -2.64070 -36.82057 30363 ft 505 kts 57°
2026-05-06 17:15 -2.62137 -36.79126 30573 ft 506 kts 57°
2026-05-06 17:15 -2.60198 -36.76185 30788 ft 507 kts 56°
2026-05-06 17:15 -2.58251 -36.73231 31003 ft 508 kts 56°
2026-05-06 17:16 -2.56303 -36.70277 31211 ft 508 kts 56°
2026-05-06 17:16 -2.54354 -36.67321 31412 ft 509 kts 56°
2026-05-06 17:16 -2.52406 -36.64367 31664 ft 509 kts 56°
2026-05-06 17:16 -2.50505 -36.61484 31953 ft 507 kts 56°
2026-05-06 17:17 -2.48570 -36.58549 32269 ft 506 kts 56°
2026-05-06 17:17 -2.46630 -36.55608 32559 ft 504 kts 56°
2026-05-06 17:17 -2.44703 -36.52686 32871 ft 503 kts 56°
2026-05-06 17:17 -2.42786 -36.49779 33261 ft 499 kts 56°
2026-05-06 17:18 -2.40879 -36.46888 33601 ft 497 kts 56°
2026-05-06 17:18 -2.38983 -36.44013 33879 ft 496 kts 56°
2026-05-06 17:18 -2.37083 -36.41134 34122 ft 495 kts 56°
2026-05-06 17:18 -2.35192 -36.38268 34387 ft 493 kts 55°
2026-05-06 17:19 -2.33310 -36.35415 34662 ft 491 kts 55°
2026-05-06 17:19 -2.31432 -36.32569 34941 ft 489 kts 55°
2026-05-06 17:19 -2.29559 -36.29730 35210 ft 487 kts 55°
2026-05-06 17:19 -2.27694 -36.26904 35466 ft 486 kts 55°
2026-05-06 17:20 -2.25839 -36.24092 35728 ft 484 kts 55°
2026-05-06 17:20 -2.23983 -36.21280 35976 ft 482 kts 55°
2026-05-06 17:20 -2.22165 -36.18525 36229 ft 481 kts 55°
2026-05-06 17:20 -2.20325 -36.15738 36462 ft 480 kts 55°
2026-05-06 17:21 -2.18488 -36.12955 36697 ft 478 kts 55°
2026-05-06 17:21 -2.16659 -36.10184 36931 ft 477 kts 54°
2026-05-06 17:21 -2.14835 -36.07422 37161 ft 476 kts 55°
2026-05-06 17:21 -2.13015 -36.04665 37368 ft 475 kts 55°
2026-05-06 17:22 -2.11199 -36.01914 37610 ft 473 kts 55°
2026-05-06 17:22 -2.09389 -35.99172 37824 ft 472 kts 54°
2026-05-06 17:22 -2.07579 -35.96432 37939 ft 473 kts 54°
2026-05-06 17:22 -2.05767 -35.93688 38093 ft 473 kts 54°
2026-05-06 17:23 -2.03955 -35.90944 38296 ft 472 kts 54°
2026-05-06 17:23 -2.02151 -35.88212 38485 ft 471 kts 54°
2026-05-06 17:23 -2.00349 -35.85483 38670 ft 470 kts 54°
2026-05-06 17:23 -1.98546 -35.82752 38792 ft 470 kts 54°
2026-05-06 17:24 -1.96744 -35.80025 38897 ft 470 kts 54°
2026-05-06 17:24 -1.93134 -35.74560 38926 ft 471 kts 54°
2026-05-06 17:25 -1.89552 -35.69136 38931 ft 470 kts 54°
2026-05-06 17:25 -1.85948 -35.63681 38922 ft 470 kts 54°
2026-05-06 17:26 -1.82344 -35.58226 38934 ft 469 kts 54°
2026-05-06 17:26 -1.78750 -35.52786 38926 ft 469 kts 54°
2026-05-06 17:27 -1.74882 -35.47569 38928 ft 465 kts 44°
2026-05-06 17:27 -1.69809 -35.43651 38918 ft 459 kts 30°
2026-05-06 17:28 -1.64261 -35.40476 38930 ft 460 kts 27°
2026-05-06 17:28 -1.58668 -35.37459 38929 ft 460 kts 26°
2026-05-06 17:29 -1.53038 -35.34414 38921 ft 460 kts 27°
2026-05-06 17:29 -1.47415 -35.31340 38930 ft 461 kts 27°
2026-05-06 17:30 -1.41788 -35.28248 38930 ft 461 kts 27°
2026-05-06 17:30 -1.36163 -35.25155 38935 ft 461 kts 27°
2026-05-06 17:31 -1.30543 -35.22066 38931 ft 460 kts 28°
2026-05-06 17:31 -1.24931 -35.18983 38919 ft 460 kts 28°
2026-05-06 17:32 -1.19303 -35.15892 38928 ft 463 kts 28°
2026-05-06 17:32 -1.13636 -35.12779 38927 ft 465 kts 28°
2026-05-06 17:33 -1.07955 -35.09659 38925 ft 465 kts 28°
2026-05-06 17:33 -1.02318 -35.06563 38926 ft 465 kts 28°
2026-05-06 17:34 -0.96652 -35.03451 38926 ft 465 kts 28°
2026-05-06 17:34 -0.90971 -35.00331 38929 ft 466 kts 28°
2026-05-06 17:35 -0.85265 -34.97197 38930 ft 469 kts 28°
2026-05-06 17:35 -0.79528 -34.94047 38926 ft 472 kts 28°
2026-05-06 17:36 -0.70894 -34.89306 38929 ft 472 kts 28°
2026-05-06 17:36 -0.65177 -34.86166 38927 ft 472 kts 28°
2026-05-06 17:37 -0.59419 -34.83004 38930 ft 473 kts 28°
2026-05-06 17:37 -0.53623 -34.79822 38927 ft 477 kts 28°
2026-05-06 17:38 -0.47805 -34.76627 38927 ft 477 kts 28°
2026-05-06 17:38 -0.41986 -34.73433 38929 ft 477 kts 28°
2026-05-06 17:39 -0.36166 -34.70237 38928 ft 478 kts 28°
2026-05-06 17:39 -0.30326 -34.67030 38926 ft 478 kts 28°
2026-05-06 17:40 -0.24494 -34.63829 38931 ft 478 kts 28°
2026-05-06 17:40 -0.18657 -34.60624 38923 ft 478 kts 28°
2026-05-06 17:41 -0.12820 -34.57419 38931 ft 478 kts 28°
2026-05-06 17:41 -0.07027 -34.54239 38928 ft 478 kts 28°
2026-05-06 17:42 -0.01185 -34.51031 38931 ft 478 kts 28°
2026-05-06 17:42 0.04651 -34.47827 38932 ft 479 kts 28°
2026-05-06 17:43 0.10488 -34.44622 38928 ft 479 kts 28°
2026-05-06 17:43 0.16329 -34.41416 38918 ft 479 kts 28°
2026-05-06 17:44 0.22166 -34.38211 38926 ft 479 kts 28°
2026-05-06 17:44 0.28010 -34.35002 38932 ft 479 kts 28°
2026-05-06 17:45 0.33846 -34.31798 38930 ft 479 kts 29°
2026-05-06 17:45 0.39690 -34.28590 38924 ft 480 kts 29°
2026-05-06 17:46 0.45545 -34.25375 38924 ft 480 kts 29°
2026-05-06 17:46 0.51358 -34.22183 38923 ft 480 kts 29°
2026-05-06 17:47 0.57209 -34.18970 38930 ft 480 kts 29°
2026-05-06 17:47 0.63073 -34.15750 38927 ft 481 kts 29°
2026-05-06 17:48 0.68956 -34.12520 38923 ft 485 kts 29°
2026-05-06 17:48 0.73891 -34.09810 38929 ft 487 kts 29°
2026-05-06 17:49 0.79842 -34.06542 38923 ft 487 kts 29°
2026-05-06 17:49 0.85785 -34.03279 38925 ft 487 kts 29°
2026-05-06 17:50 0.91737 -34.00011 38938 ft 487 kts 29°
2026-05-06 17:50 0.97681 -33.96748 38925 ft 487 kts 28°
2026-05-06 17:51 1.03597 -33.93500 38927 ft 488 kts 28°
2026-05-06 17:51 1.09545 -33.90234 38928 ft 488 kts 28°
2026-05-06 17:52 1.15498 -33.86965 38928 ft 488 kts 28°
2026-05-06 17:52 1.21452 -33.83696 38924 ft 488 kts 28°
2026-05-06 17:53 1.27405 -33.80427 38925 ft 488 kts 28°
2026-05-06 17:53 1.33340 -33.77159 38925 ft 487 kts 28°
2026-05-06 17:54 1.39282 -33.73900 38924 ft 487 kts 28°
2026-05-06 17:54 1.45181 -33.70664 38924 ft 487 kts 28°
2026-05-06 17:55 1.51119 -33.67404 38920 ft 486 kts 28°
2026-05-06 17:55 1.57044 -33.64149 38920 ft 486 kts 28°
2026-05-06 17:56 1.62963 -33.60897 38925 ft 485 kts 28°
2026-05-06 17:56 1.68892 -33.57640 38924 ft 485 kts 28°
2026-05-06 17:57 1.74804 -33.54393 38923 ft 485 kts 28°
2026-05-06 17:57 1.80679 -33.51165 38924 ft 485 kts 28°
2026-05-06 17:58 1.86594 -33.47915 38924 ft 485 kts 28°
2026-05-06 17:58 1.92511 -33.44663 38925 ft 485 kts 28°
2026-05-06 17:59 1.98428 -33.41412 38918 ft 484 kts 28°
2026-05-06 17:59 2.04315 -33.38177 38922 ft 483 kts 28°
2026-05-06 18:00 2.10199 -33.34943 38925 ft 483 kts 28°
2026-05-06 18:00 2.16051 -33.31726 38935 ft 483 kts 28°
2026-05-06 18:01 2.21945 -33.28487 38918 ft 483 kts 28°
2026-05-06 18:01 2.27829 -33.25252 38912 ft 482 kts 28°
2026-05-06 18:02 2.33700 -33.22024 38913 ft 481 kts 28°
2026-05-06 18:02 2.39566 -33.18799 38920 ft 481 kts 28°
2026-05-06 18:03 2.45438 -33.15569 38916 ft 481 kts 27°
2026-05-06 18:03 2.51295 -33.12348 38915 ft 480 kts 27°
2026-05-06 18:04 2.57121 -33.09144 38920 ft 480 kts 27°
2026-05-06 18:04 2.62960 -33.05932 38925 ft 479 kts 27°
2026-05-06 18:05 2.68810 -33.02713 38916 ft 478 kts 27°
2026-05-06 18:05 2.74640 -32.99506 38919 ft 478 kts 27°
2026-05-06 18:06 2.80474 -32.96295 38922 ft 478 kts 27°
2026-05-06 18:06 2.86305 -32.93087 38926 ft 478 kts 27°
2026-05-06 18:07 2.92143 -32.89874 38914 ft 478 kts 27°
2026-05-06 18:07 2.97980 -32.86660 38919 ft 478 kts 27°
2026-05-06 18:08 3.03766 -32.83475 38914 ft 478 kts 27°
2026-05-06 18:08 3.09590 -32.80268 38925 ft 478 kts 27°
2026-05-06 18:09 3.15416 -32.77060 38915 ft 477 kts 27°
2026-05-06 18:09 3.21238 -32.73854 38912 ft 477 kts 27°
2026-05-06 18:10 3.27059 -32.70648 38929 ft 477 kts 27°
2026-05-06 18:10 3.32883 -32.67440 38916 ft 477 kts 27°
2026-05-06 18:11 3.38704 -32.64233 38912 ft 477 kts 27°
2026-05-06 18:11 3.44486 -32.61047 38915 ft 477 kts 27°
2026-05-06 18:12 3.50301 -32.57842 38914 ft 477 kts 27°
2026-05-06 18:12 3.56117 -32.54636 38921 ft 477 kts 27°
2026-05-06 18:13 3.61931 -32.51432 38923 ft 476 kts 27°
2026-05-06 18:13 3.67733 -32.48233 38924 ft 476 kts 27°
2026-05-06 18:14 3.73541 -32.45031 38922 ft 476 kts 27°
2026-05-06 18:14 3.79308 -32.41851 38911 ft 476 kts 27°
2026-05-06 18:15 3.85111 -32.38650 38930 ft 476 kts 27°
2026-05-06 18:15 3.90913 -32.35449 38919 ft 476 kts 27°
2026-05-06 18:16 3.96721 -32.32245 38916 ft 476 kts 27°
2026-05-06 18:16 4.02523 -32.29043 38917 ft 476 kts 27°
2026-05-06 18:17 4.08293 -32.25859 38917 ft 476 kts 27°
2026-05-06 18:17 4.14091 -32.22658 38924 ft 476 kts 27°
2026-05-06 18:18 4.19894 -32.19454 38933 ft 476 kts 27°
2026-05-06 18:18 4.25699 -32.16249 38920 ft 477 kts 27°
2026-05-06 18:19 4.31503 -32.13044 38918 ft 477 kts 27°
2026-05-06 18:19 4.37317 -32.09832 38927 ft 477 kts 27°
2026-05-06 18:20 4.43121 -32.06626 38925 ft 477 kts 27°
2026-05-06 18:20 4.48897 -32.03434 38925 ft 476 kts 27°
2026-05-06 18:21 4.54704 -32.00224 38922 ft 477 kts 27°
2026-05-06 18:21 4.60451 -31.97048 38927 ft 477 kts 27°
2026-05-06 18:22 4.66208 -31.93865 38927 ft 478 kts 27°
2026-05-06 18:22 4.71875 -31.90731 38931 ft 478 kts 27°
2026-05-06 18:23 4.77699 -31.87510 38921 ft 477 kts 27°
2026-05-06 18:23 4.83515 -31.84293 38930 ft 477 kts 27°
2026-05-06 18:24 4.89331 -31.81074 38928 ft 478 kts 27°
2026-05-06 18:24 4.95158 -31.77850 38933 ft 479 kts 27°
2026-05-06 18:25 5.00985 -31.74625 38933 ft 479 kts 27°
2026-05-06 18:25 5.06824 -31.71392 38929 ft 479 kts 27°
2026-05-06 18:26 5.12627 -31.68178 38930 ft 479 kts 27°
2026-05-06 18:26 5.18458 -31.64949 38931 ft 479 kts 27°
2026-05-06 18:27 5.24295 -31.61704 38933 ft 480 kts 27°
2026-05-06 18:27 5.30117 -31.58433 38927 ft 479 kts 27°
2026-05-06 18:28 5.35919 -31.55167 38930 ft 479 kts 27°
2026-05-06 18:28 5.41733 -31.51896 38939 ft 479 kts 27°
2026-05-06 18:29 5.47548 -31.48627 38934 ft 479 kts 27°
2026-05-06 18:29 5.53364 -31.45357 38936 ft 479 kts 27°
2026-05-06 18:30 5.59198 -31.42076 38931 ft 480 kts 27°
2026-05-06 18:30 5.64986 -31.38820 38935 ft 481 kts 27°
2026-05-06 18:31 5.70825 -31.35534 38934 ft 481 kts 27°
2026-05-06 18:31 5.76695 -31.32230 38933 ft 481 kts 27°
2026-05-06 18:32 5.77638 -31.31700 38930 ft 481 kts 27°
2026-05-06 18:33 5.82326 -31.29060 38930 ft 480 kts 27°
2026-05-06 18:33 5.88161 -31.25775 38931 ft 481 kts 27°
2026-05-06 18:34 5.93965 -31.22506 38933 ft 481 kts 27°
2026-05-06 18:34 5.99803 -31.19217 38934 ft 481 kts 27°
2026-05-06 18:35 6.05647 -31.15924 38925 ft 481 kts 27°
2026-05-06 18:35 6.11487 -31.12632 38939 ft 481 kts 27°
2026-05-06 18:36 6.17325 -31.09341 38936 ft 481 kts 27°
2026-05-06 18:36 6.23169 -31.06045 38939 ft 481 kts 27°
2026-05-06 18:37 6.28026 -31.03305 38945 ft 481 kts 27°
2026-05-06 18:37 6.33867 -31.00010 38940 ft 481 kts 27°
2026-05-06 18:38 6.39717 -30.96709 38934 ft 481 kts 27°
2026-05-06 18:38 6.45561 -30.93410 38942 ft 481 kts 27°
2026-05-06 18:39 6.51370 -30.90130 38945 ft 481 kts 27°
2026-05-06 18:40 6.60153 -30.85169 38934 ft 482 kts 27°
2026-05-06 18:40 6.66010 -30.81860 38949 ft 482 kts 27°
2026-05-06 18:41 6.71861 -30.78553 38936 ft 482 kts 27°
2026-05-06 18:41 6.77685 -30.75260 38939 ft 482 kts 27°
2026-05-06 18:42 6.83543 -30.71947 38946 ft 482 kts 27°
2026-05-06 18:42 6.89403 -30.68632 38938 ft 483 kts 27°
2026-05-06 18:43 6.95284 -30.65305 38950 ft 484 kts 27°
2026-05-06 18:43 7.01123 -30.62001 38939 ft 485 kts 27°
2026-05-06 18:44 7.06997 -30.58675 38950 ft 485 kts 27°
2026-05-06 18:44 7.12881 -30.55343 38937 ft 485 kts 27°
2026-05-06 18:45 7.18759 -30.52013 38942 ft 484 kts 27°
2026-05-06 18:45 7.24643 -30.48679 38942 ft 486 kts 27°
2026-05-06 18:46 7.30512 -30.45353 38940 ft 487 kts 27°
2026-05-06 18:46 7.36414 -30.42006 38943 ft 487 kts 27°
2026-05-06 18:47 7.42318 -30.38657 38941 ft 487 kts 27°
2026-05-06 18:47 7.48228 -30.35304 38949 ft 486 kts 27°
2026-05-06 18:48 7.54122 -30.31959 38950 ft 486 kts 27°
2026-05-06 18:48 7.60025 -30.28608 38950 ft 488 kts 27°
2026-05-06 18:49 7.65950 -30.25244 38946 ft 488 kts 27°
2026-05-06 18:49 7.71847 -30.21894 38946 ft 488 kts 27°
2026-05-06 18:50 7.77766 -30.18530 38953 ft 488 kts 27°
2026-05-06 18:50 7.83695 -30.15160 38950 ft 488 kts 27°
2026-05-06 18:51 7.89615 -30.11794 38948 ft 489 kts 27°
2026-05-06 18:51 7.95545 -30.08421 38951 ft 489 kts 27°
2026-05-06 18:52 8.01480 -30.05043 38950 ft 489 kts 27°
2026-05-06 18:52 8.07415 -30.01665 38951 ft 490 kts 27°
2026-05-06 18:53 8.13351 -29.98285 38949 ft 490 kts 27°
2026-05-06 18:53 8.19248 -29.94927 38949 ft 490 kts 27°
2026-05-06 18:54 8.25188 -29.91542 38952 ft 490 kts 27°
2026-05-06 18:54 8.31131 -29.88155 38956 ft 491 kts 27°
2026-05-06 18:55 8.37084 -29.84761 38956 ft 491 kts 27°
2026-05-06 18:55 8.43038 -29.81364 38955 ft 491 kts 27°
2026-05-06 18:56 8.48980 -29.77974 38957 ft 491 kts 27°
2026-05-06 18:56 8.54926 -29.74580 38957 ft 491 kts 27°
2026-05-06 18:57 8.60877 -29.71181 38958 ft 491 kts 26°
2026-05-06 18:57 8.66835 -29.67778 38960 ft 492 kts 26°
2026-05-06 18:58 8.72755 -29.64395 38963 ft 492 kts 26°
2026-05-06 18:58 8.78751 -29.60967 38963 ft 492 kts 26°
2026-05-06 18:59 8.84672 -29.57581 38963 ft 492 kts 26°
2026-05-06 18:59 8.90627 -29.54174 38971 ft 492 kts 26°
2026-05-06 19:00 8.96591 -29.50761 38963 ft 493 kts 26°
2026-05-06 19:00 9.02564 -29.47341 38966 ft 493 kts 26°
2026-05-06 19:01 9.08535 -29.43921 38965 ft 493 kts 26°
2026-05-06 19:01 9.14469 -29.40521 38966 ft 493 kts 26°
2026-05-06 19:02 9.20440 -29.37098 38966 ft 493 kts 26°
2026-05-06 19:02 9.26408 -29.33676 38969 ft 493 kts 26°
2026-05-06 19:03 9.32381 -29.30250 38966 ft 493 kts 26°
2026-05-06 19:03 9.38357 -29.26821 38966 ft 493 kts 26°
2026-05-06 19:04 9.44332 -29.23390 38967 ft 493 kts 26°
2026-05-06 19:04 9.50313 -29.19955 38969 ft 494 kts 26°
2026-05-06 19:05 9.56249 -29.16545 38968 ft 494 kts 26°
2026-05-06 19:05 9.62232 -29.13106 38966 ft 494 kts 26°
2026-05-06 19:06 9.68210 -29.09668 38971 ft 494 kts 26°
2026-05-06 19:06 9.74191 -29.06228 38971 ft 494 kts 26°
2026-05-06 19:07 9.80164 -29.02790 38971 ft 494 kts 26°
2026-05-06 19:07 9.86098 -28.99373 38972 ft 494 kts 26°
2026-05-06 19:08 9.92073 -28.95931 38981 ft 494 kts 26°
2026-05-06 19:08 9.98042 -28.92490 38974 ft 493 kts 26°
2026-05-06 19:09 10.04010 -28.89050 38969 ft 493 kts 26°
2026-05-06 19:09 10.09974 -28.85610 38974 ft 493 kts 26°
2026-05-06 19:10 10.15945 -28.82164 38974 ft 493 kts 26°
2026-05-06 19:10 10.21910 -28.78721 38974 ft 493 kts 26°
2026-05-06 19:11 10.27874 -28.75277 38979 ft 493 kts 26°
2026-05-06 19:11 10.33804 -28.71851 38977 ft 493 kts 26°
2026-05-06 19:12 10.39778 -28.68397 38977 ft 494 kts 26°
2026-05-06 19:12 10.45751 -28.64943 38977 ft 493 kts 26°
2026-05-06 19:13 10.51726 -28.61486 38981 ft 493 kts 26°
2026-05-06 19:13 10.57648 -28.58058 38980 ft 493 kts 26°
2026-05-06 19:14 10.63610 -28.54605 38977 ft 493 kts 25°
2026-05-06 19:14 10.69582 -28.51146 38976 ft 494 kts 26°
2026-05-06 19:15 10.75551 -28.47686 38983 ft 494 kts 26°
2026-05-06 19:15 10.81529 -28.44220 38984 ft 494 kts 26°
2026-05-06 19:16 10.87509 -28.40750 38981 ft 494 kts 26°
2026-05-06 19:16 10.93480 -28.37284 38981 ft 494 kts 26°
2026-05-06 19:17 10.99450 -28.33818 38982 ft 494 kts 25°
2026-05-06 19:17 11.05425 -28.30346 38979 ft 494 kts 25°
2026-05-06 19:18 11.11402 -28.26873 38983 ft 494 kts 25°
2026-05-06 19:18 11.17377 -28.23398 38983 ft 494 kts 25°
2026-05-06 19:19 11.23328 -28.19936 38982 ft 494 kts 25°
2026-05-06 19:19 11.29295 -28.16462 38982 ft 494 kts 25°
2026-05-06 19:20 11.35262 -28.12987 38981 ft 493 kts 25°
2026-05-06 19:20 11.41203 -28.09525 38982 ft 492 kts 25°
2026-05-06 19:21 11.47146 -28.06061 38985 ft 492 kts 25°
2026-05-06 19:21 11.53093 -28.02594 38985 ft 493 kts 25°
2026-05-06 19:22 11.59011 -27.99141 38986 ft 493 kts 25°
2026-05-06 19:22 11.64967 -27.95663 38997 ft 493 kts 26°
2026-05-06 19:23 11.70947 -27.92172 38988 ft 498 kts 26°
2026-05-06 19:23 11.76990 -27.88642 38987 ft 501 kts 26°
2026-05-06 19:24 11.83030 -27.85109 38988 ft 500 kts 26°
2026-05-06 19:24 11.89071 -27.81574 38991 ft 500 kts 26°
2026-05-06 19:25 11.94094 -27.78634 38990 ft 500 kts 26°
2026-05-06 19:25 12.00129 -27.75100 38997 ft 500 kts 25°
2026-05-06 19:26 12.06180 -27.71556 38988 ft 501 kts 25°
2026-05-06 19:26 12.12233 -27.68008 38990 ft 501 kts 25°
2026-05-06 19:27 12.18281 -27.64461 38991 ft 501 kts 25°
2026-05-06 19:27 12.24328 -27.60913 38987 ft 501 kts 25°
2026-05-06 19:28 12.30388 -27.57355 38988 ft 501 kts 25°
2026-05-06 19:28 12.36430 -27.53806 38993 ft 501 kts 25°
2026-05-06 19:29 12.42443 -27.50272 38991 ft 501 kts 25°
2026-05-06 19:29 12.48530 -27.46693 38988 ft 501 kts 25°
2026-05-06 19:30 12.54534 -27.43161 38993 ft 501 kts 25°
2026-05-06 19:30 12.60584 -27.39599 38993 ft 501 kts 25°
2026-05-06 19:31 12.66633 -27.36037 38995 ft 501 kts 25°
2026-05-06 19:31 12.75726 -27.30678 38993 ft 503 kts 25°
2026-05-06 19:32 12.81799 -27.27096 38993 ft 503 kts 25°
2026-05-06 19:32 12.87870 -27.23513 38992 ft 503 kts 25°
2026-05-06 19:33 12.93940 -27.19929 38994 ft 503 kts 25°
2026-05-06 19:33 13.00012 -27.16341 38994 ft 503 kts 25°
2026-05-06 19:34 13.06038 -27.12779 38995 ft 503 kts 25°
2026-05-06 19:34 13.12104 -27.09191 38996 ft 503 kts 25°
2026-05-06 19:35 13.18170 -27.05601 38993 ft 503 kts 25°
2026-05-06 19:35 13.24235 -27.02009 38995 ft 503 kts 25°
2026-05-06 19:36 13.30268 -26.98435 38992 ft 503 kts 25°
2026-05-06 19:36 13.36329 -26.94842 39000 ft 503 kts 25°
2026-05-06 19:37 13.42414 -26.91233 38997 ft 506 kts 25°
2026-05-06 19:37 13.48520 -26.87609 38994 ft 507 kts 25°
2026-05-06 19:38 13.54631 -26.83980 38995 ft 508 kts 25°
2026-05-06 19:38 13.60750 -26.80343 38994 ft 508 kts 25°
2026-05-06 19:39 13.66876 -26.76699 38998 ft 508 kts 25°
2026-05-06 19:39 13.72995 -26.73058 39006 ft 508 kts 25°
2026-05-06 19:40 13.79137 -26.69403 38995 ft 511 kts 25°
2026-05-06 19:40 13.85299 -26.65733 38997 ft 512 kts 25°
2026-05-06 19:41 13.91476 -26.62050 39031 ft 512 kts 25°
2026-05-06 19:41 13.94552 -26.60215 39183 ft 512 kts 25°
2026-05-06 19:41 13.97633 -26.58376 39348 ft 511 kts 25°
2026-05-06 19:42 14.00701 -26.56545 39540 ft 510 kts 25°
2026-05-06 19:42 14.03777 -26.54708 39690 ft 509 kts 25°
2026-05-06 19:42 14.06836 -26.52881 39888 ft 508 kts 24°
2026-05-06 19:42 14.09889 -26.51056 40021 ft 508 kts 24°
2026-05-06 19:43 14.12912 -26.49250 40178 ft 508 kts 24°
2026-05-06 19:43 14.15962 -26.47428 40329 ft 507 kts 24°
2026-05-06 19:43 14.19005 -26.45609 40496 ft 505 kts 24°
2026-05-06 19:43 14.22045 -26.43790 40657 ft 504 kts 24°
2026-05-06 19:44 14.25081 -26.41974 40824 ft 503 kts 24°
2026-05-06 19:44 14.28109 -26.40162 40963 ft 503 kts 23°
2026-05-06 19:44 14.34184 -26.36529 40999 ft 506 kts 24°
2026-05-06 19:45 14.40271 -26.32882 41004 ft 505 kts 24°
2026-05-06 19:45 14.46337 -26.29243 41002 ft 504 kts 23°
2026-05-06 19:46 14.52406 -26.25601 41004 ft 504 kts 23°
2026-05-06 19:46 14.58472 -26.21959 41003 ft 504 kts 23°
2026-05-06 19:47 14.64508 -26.18333 41004 ft 504 kts 23°
2026-05-06 19:47 14.70577 -26.14685 41004 ft 504 kts 23°
2026-05-06 19:48 14.76644 -26.11034 41021 ft 505 kts 23°
2026-05-06 19:48 14.82722 -26.07375 41008 ft 505 kts 23°
2026-05-06 19:49 14.88786 -26.03723 41007 ft 505 kts 23°
2026-05-06 19:49 14.94853 -26.00066 41006 ft 505 kts 23°
2026-05-06 19:50 15.00883 -25.96429 41004 ft 505 kts 23°
2026-05-06 19:50 15.06948 -25.92769 41003 ft 505 kts 23°
2026-05-06 19:51 15.13022 -25.89100 41011 ft 505 kts 22°
2026-05-06 19:51 15.19113 -25.85421 40998 ft 508 kts 22°
2026-05-06 19:52 15.25227 -25.81724 40997 ft 509 kts 22°
2026-05-06 19:52 15.31339 -25.78024 41012 ft 508 kts 22°
2026-05-06 19:53 15.37415 -25.74343 41017 ft 508 kts 22°
2026-05-06 19:53 15.43533 -25.70636 41015 ft 509 kts 22°
2026-05-06 19:54 15.49643 -25.66930 41014 ft 509 kts 22°
2026-05-06 19:54 15.55754 -25.63222 41017 ft 509 kts 22°
2026-05-06 19:55 15.59510 -25.60941 41016 ft 508 kts 22°
2026-05-06 19:55 15.62567 -25.59084 41016 ft 508 kts 22°
2026-05-06 19:56 15.65742 -25.57154 41015 ft 508 kts 22°
2026-05-06 19:56 15.71853 -25.53439 41015 ft 508 kts 22°
2026-05-06 19:57 15.77946 -25.49733 41015 ft 508 kts 22°
2026-05-06 19:57 15.84063 -25.46009 41020 ft 510 kts 22°
2026-05-06 19:58 15.90194 -25.42276 41016 ft 512 kts 22°
2026-05-06 19:58 15.96332 -25.38533 41016 ft 512 kts 22°
2026-05-06 19:59 16.02478 -25.34781 41009 ft 512 kts 22°
2026-05-06 19:59 16.08583 -25.31053 41006 ft 512 kts 22°
2026-05-06 20:00 16.14760 -25.27279 41023 ft 512 kts 22°
2026-05-06 20:00 16.20854 -25.23553 41000 ft 511 kts 22°
2026-05-06 20:01 16.26992 -25.19797 40998 ft 511 kts 22°
2026-05-06 20:01 16.33114 -25.16048 40995 ft 511 kts 22°
2026-05-06 20:02 16.39244 -25.12292 40993 ft 511 kts 22°
2026-05-06 20:02 16.45368 -25.08537 40985 ft 511 kts 22°
2026-05-06 20:03 16.51497 -25.04775 40982 ft 511 kts 22°
2026-05-06 20:03 16.57582 -25.01038 40973 ft 511 kts 22°
2026-05-06 20:04 16.63707 -24.97273 40972 ft 511 kts 22°
2026-05-06 20:04 16.69845 -24.93499 40970 ft 511 kts 22°
2026-05-06 20:05 16.75968 -24.89729 40970 ft 511 kts 22°
2026-05-06 20:05 16.82104 -24.85949 40984 ft 511 kts 22°
2026-05-06 20:06 16.88235 -24.82170 40982 ft 512 kts 22°
2026-05-06 20:06 16.94366 -24.78388 40982 ft 512 kts 22°
2026-05-06 20:07 17.00503 -24.74598 41015 ft 512 kts 22°
2026-05-06 20:07 17.06605 -24.70828 41015 ft 512 kts 22°
2026-05-06 20:08 17.12747 -24.67030 41021 ft 513 kts 22°
2026-05-06 20:08 17.18894 -24.63226 41037 ft 513 kts 22°
2026-05-06 20:09 17.25009 -24.59437 41021 ft 509 kts 22°
2026-05-06 20:09 17.31098 -24.55661 41021 ft 509 kts 22°
2026-05-06 20:10 17.36173 -24.52515 41025 ft 509 kts 22°
2026-05-06 20:10 17.42273 -24.48730 41023 ft 509 kts 22°
2026-05-06 20:11 17.48363 -24.44947 41019 ft 509 kts 22°
2026-05-06 20:11 17.54450 -24.41163 41028 ft 508 kts 23°
2026-05-06 20:12 17.60527 -24.37380 41025 ft 507 kts 22°
2026-05-06 20:12 17.66594 -24.33603 41023 ft 507 kts 22°
2026-05-06 20:13 17.72665 -24.29821 41023 ft 507 kts 22°
2026-05-06 20:13 17.78728 -24.26041 41023 ft 507 kts 22°
2026-05-06 20:14 17.84756 -24.22279 41026 ft 507 kts 22°
2026-05-06 20:14 17.90823 -24.18490 41026 ft 506 kts 23°
2026-05-06 20:15 17.96864 -24.14713 41029 ft 505 kts 23°
2026-05-06 20:15 18.02910 -24.10932 41026 ft 505 kts 23°
2026-05-06 20:16 18.08946 -24.07154 41029 ft 505 kts 23°
2026-05-06 20:16 18.14983 -24.03371 41031 ft 506 kts 23°
2026-05-06 20:17 18.21037 -23.99576 41064 ft 506 kts 23°
2026-05-06 20:17 18.27081 -23.95782 41027 ft 504 kts 23°
2026-05-06 20:18 18.33100 -23.92001 41031 ft 504 kts 23°
2026-05-06 20:18 18.39087 -23.88238 41030 ft 504 kts 23°
2026-05-06 20:19 18.45104 -23.84454 41033 ft 504 kts 23°
2026-05-06 20:19 18.51134 -23.80657 41024 ft 504 kts 23°
2026-05-06 20:20 18.57152 -23.76865 41042 ft 504 kts 23°
2026-05-06 20:20 18.63164 -23.73072 41031 ft 502 kts 23°
2026-05-06 20:21 18.69163 -23.69286 41029 ft 502 kts 23°
2026-05-06 20:21 18.75129 -23.65518 41029 ft 503 kts 23°
2026-05-06 20:22 18.81126 -23.61727 41029 ft 503 kts 23°
2026-05-06 20:22 18.87126 -23.57930 41028 ft 503 kts 23°
2026-05-06 20:23 18.93119 -23.54134 41032 ft 501 kts 24°
2026-05-06 20:23 18.99080 -23.50353 41031 ft 498 kts 24°
2026-05-06 20:24 19.05029 -23.46580 41030 ft 498 kts 24°
2026-05-06 20:24 19.10966 -23.42812 41040 ft 498 kts 24°
2026-05-06 20:25 19.16912 -23.39035 41021 ft 498 kts 24°
2026-05-06 20:25 19.22851 -23.35257 41035 ft 498 kts 24°
2026-05-06 20:26 19.28780 -23.31481 41026 ft 494 kts 24°
2026-05-06 20:26 19.34640 -23.27745 41030 ft 491 kts 24°
2026-05-06 20:27 19.40501 -23.24010 41030 ft 491 kts 24°
2026-05-06 20:27 19.46330 -23.20293 41026 ft 492 kts 24°
2026-05-06 20:28 19.52186 -23.16553 41024 ft 492 kts 24°
2026-05-06 20:28 19.58053 -23.12803 41051 ft 492 kts 24°
2026-05-06 20:29 19.63891 -23.09066 41026 ft 489 kts 24°
2026-05-06 20:29 19.69710 -23.05338 41025 ft 488 kts 24°
2026-05-06 20:30 19.78426 -22.99753 41023 ft 488 kts 24°
2026-05-06 20:31 19.84233 -22.96027 41027 ft 488 kts 24°
2026-05-06 20:31 19.90039 -22.92298 41027 ft 488 kts 24°
2026-05-06 20:32 19.95815 -22.88585 41026 ft 488 kts 24°
2026-05-06 20:32 20.01629 -22.84844 41027 ft 488 kts 24°
2026-05-06 20:33 20.07433 -22.81107 41028 ft 488 kts 24°
2026-05-06 20:33 20.13235 -22.77367 41031 ft 488 kts 24°
2026-05-06 20:34 20.19048 -22.73617 41026 ft 488 kts 24°
2026-05-06 20:34 20.24853 -22.69870 41038 ft 488 kts 25°
2026-05-06 20:35 20.30619 -22.66143 41028 ft 486 kts 25°
2026-05-06 20:35 20.36404 -22.62400 41026 ft 485 kts 25°
2026-05-06 20:36 20.42175 -22.58665 41026 ft 485 kts 25°
2026-05-06 20:36 20.47955 -22.54920 41026 ft 486 kts 25°
2026-05-06 20:37 20.53726 -22.51178 41026 ft 486 kts 25°
2026-05-06 20:37 20.59506 -22.47426 41029 ft 486 kts 25°
2026-05-06 20:38 20.65283 -22.43673 41029 ft 485 kts 25°
2026-05-06 20:38 20.71053 -22.39921 41027 ft 486 kts 25°
2026-05-06 20:39 20.76796 -22.36183 41029 ft 486 kts 25°
2026-05-06 20:39 20.82576 -22.32417 41031 ft 486 kts 25°
2026-05-06 20:40 20.88356 -22.28649 41028 ft 486 kts 25°
2026-05-06 20:40 20.94119 -22.24887 41048 ft 486 kts 25°
2026-05-06 20:41 20.99878 -22.21124 41032 ft 484 kts 25°
2026-05-06 20:41 21.05618 -22.17371 41031 ft 483 kts 25°
2026-05-06 20:42 21.11368 -22.13608 41029 ft 483 kts 25°
2026-05-06 20:42 21.17114 -22.09845 41031 ft 483 kts 25°
2026-05-06 20:43 21.22855 -22.06081 41029 ft 483 kts 25°
2026-05-06 20:43 21.28551 -22.02343 41041 ft 483 kts 25°
2026-05-06 20:44 21.34295 -21.98568 41029 ft 479 kts 25°
2026-05-06 20:44 21.39937 -21.94858 41029 ft 478 kts 25°
2026-05-06 20:45 21.45613 -21.91125 41028 ft 478 kts 25°
2026-05-06 20:45 21.51201 -21.87445 41033 ft 478 kts 25°
2026-05-06 20:46 21.55118 -21.84864 41031 ft 478 kts 25°
2026-05-06 20:46 21.60789 -21.81123 41036 ft 478 kts 25°
2026-05-06 20:47 21.66456 -21.77379 41030 ft 476 kts 25°
2026-05-06 20:47 21.70706 -21.74569 41033 ft 475 kts 25°
2026-05-06 20:48 21.76337 -21.70845 41031 ft 475 kts 25°
2026-05-06 20:48 21.81963 -21.67122 41032 ft 475 kts 25°
2026-05-06 20:49 21.87493 -21.63462 40949 ft 478 kts 28°
2026-05-06 20:49 21.93177 -21.59695 41034 ft 480 kts 25°
2026-05-06 20:50 21.98855 -21.55921 41037 ft 478 kts 25°
2026-05-06 20:50 22.04498 -21.52166 41037 ft 475 kts 25°
2026-05-06 20:51 22.09496 -21.48842 41037 ft 475 kts 25°
2026-05-06 20:51 22.15126 -21.45096 41040 ft 475 kts 25°
2026-05-06 20:52 22.20760 -21.41342 41038 ft 475 kts 25°
2026-05-06 20:52 22.25752 -21.38013 41038 ft 475 kts 25°
2026-05-06 20:53 22.30303 -21.34975 41028 ft 475 kts 25°
2026-05-06 20:53 22.35915 -21.31226 41045 ft 474 kts 25°
2026-05-06 20:54 22.41522 -21.27476 41028 ft 474 kts 25°
2026-05-06 20:54 22.47132 -21.23722 41045 ft 474 kts 25°
2026-05-06 20:55 22.51790 -21.20601 41038 ft 474 kts 25°
2026-05-06 20:55 22.58336 -21.16211 41041 ft 473 kts 25°
2026-05-06 20:56 22.62991 -21.13087 41049 ft 473 kts 25°
2026-05-06 20:56 22.69495 -21.08716 41035 ft 472 kts 25°
2026-05-06 20:57 22.74135 -21.05596 41038 ft 472 kts 25°
2026-05-06 20:57 22.79708 -21.01845 41040 ft 472 kts 25°
2026-05-06 20:58 22.85297 -20.98080 41036 ft 472 kts 25°
2026-05-06 20:58 22.90865 -20.94324 41040 ft 471 kts 25°
2026-05-06 20:59 22.96442 -20.90559 41052 ft 471 kts 25°
2026-05-06 20:59 23.01970 -20.86823 41034 ft 470 kts 25°
2026-05-06 21:00 23.07517 -20.83070 41032 ft 470 kts 25°
2026-05-06 21:00 23.13069 -20.79312 41043 ft 470 kts 25°
2026-05-06 21:01 23.18616 -20.75553 41039 ft 470 kts 25°
2026-05-06 21:01 23.24175 -20.71782 41034 ft 470 kts 25°
2026-05-06 21:02 23.29718 -20.68017 41035 ft 470 kts 25°
2026-05-06 21:02 23.35274 -20.64240 41037 ft 470 kts 25°
2026-05-06 21:03 23.40819 -20.60467 41034 ft 470 kts 25°
2026-05-06 21:03 23.46369 -20.56686 41034 ft 470 kts 25°
2026-05-06 21:04 23.51924 -20.52899 41034 ft 470 kts 25°
2026-05-06 21:04 23.57470 -20.49114 41034 ft 470 kts 25°
2026-05-06 21:05 23.62989 -20.45343 41041 ft 470 kts 25°
2026-05-06 21:05 23.68526 -20.41556 41034 ft 469 kts 25°
2026-05-06 21:06 23.74054 -20.37771 41031 ft 469 kts 25°
2026-05-06 21:06 23.79594 -20.33976 41034 ft 469 kts 25°
2026-05-06 21:07 23.85127 -20.30180 41037 ft 469 kts 25°
2026-05-06 21:07 23.90628 -20.26403 41034 ft 470 kts 25°
2026-05-06 21:08 23.96158 -20.22602 41047 ft 469 kts 26°
2026-05-06 21:08 24.01687 -20.18796 41037 ft 468 kts 26°
2026-05-06 21:09 24.07198 -20.15000 41036 ft 468 kts 26°
2026-05-06 21:09 24.12714 -20.11198 41039 ft 468 kts 26°
2026-05-06 21:10 24.18224 -20.07395 41036 ft 469 kts 26°
2026-05-06 21:10 24.23752 -20.03575 41037 ft 469 kts 26°
2026-05-06 21:11 24.29261 -19.99765 41047 ft 468 kts 26°
2026-05-06 21:11 24.34729 -19.95978 41033 ft 467 kts 26°
2026-05-06 21:12 24.40232 -19.92164 41032 ft 467 kts 26°
2026-05-06 21:12 24.45727 -19.88352 41034 ft 467 kts 26°
2026-05-06 21:13 24.51220 -19.84537 41032 ft 467 kts 26°
2026-05-06 21:13 24.56714 -19.80718 41034 ft 467 kts 26°
2026-05-06 21:14 24.62219 -19.76886 41039 ft 467 kts 26°
2026-05-06 21:14 24.67679 -19.73080 41031 ft 466 kts 26°
2026-05-06 21:15 24.73161 -19.69256 41029 ft 466 kts 26°
2026-05-06 21:15 24.78643 -19.65429 41031 ft 466 kts 26°
2026-05-06 21:16 24.84119 -19.61602 41030 ft 466 kts 26°
2026-05-06 21:16 24.89595 -19.57770 41031 ft 466 kts 26°
2026-05-06 21:17 24.95076 -19.53931 41045 ft 466 kts 26°
2026-05-06 21:17 25.00498 -19.50128 41033 ft 464 kts 26°
2026-05-06 21:18 25.05945 -19.46303 41032 ft 464 kts 26°
2026-05-06 21:18 25.11394 -19.42473 41033 ft 465 kts 26°
2026-05-06 21:19 25.16846 -19.38638 41029 ft 465 kts 26°
2026-05-06 21:19 25.22304 -19.34792 41037 ft 465 kts 26°
2026-05-06 21:20 25.27762 -19.30943 41046 ft 465 kts 27°
2026-05-06 21:20 25.33211 -19.27095 41035 ft 463 kts 27°
2026-05-06 21:21 25.38641 -19.23257 41035 ft 463 kts 27°
2026-05-06 21:21 25.44033 -19.19443 41028 ft 463 kts 27°
2026-05-06 21:22 25.49464 -19.15597 41037 ft 463 kts 27°
2026-05-06 21:22 25.54894 -19.11747 41049 ft 463 kts 27°
2026-05-06 21:23 25.60345 -19.07879 41037 ft 464 kts 27°
2026-05-06 21:23 25.65766 -19.04026 41034 ft 463 kts 27°
2026-05-06 21:24 25.71158 -19.00190 41034 ft 462 kts 27°
2026-05-06 21:24 25.76580 -18.96329 41031 ft 463 kts 27°
2026-05-06 21:25 25.81998 -18.92467 41031 ft 463 kts 27°
2026-05-06 21:25 25.87422 -18.88596 41034 ft 463 kts 27°
2026-05-06 21:26 25.92831 -18.84732 41040 ft 462 kts 27°
2026-05-06 21:26 25.98239 -18.80863 41034 ft 461 kts 27°
2026-05-06 21:27 26.03637 -18.76997 41035 ft 461 kts 27°
2026-05-06 21:27 26.08993 -18.73158 41034 ft 461 kts 27°
2026-05-06 21:28 26.14393 -18.69284 41033 ft 461 kts 27°
2026-05-06 21:28 26.19780 -18.65413 41034 ft 461 kts 27°
2026-05-06 21:29 26.25178 -18.61530 41039 ft 461 kts 27°
2026-05-06 21:29 26.30564 -18.57652 41037 ft 460 kts 27°
2026-05-06 21:30 26.35932 -18.53782 41039 ft 460 kts 27°
2026-05-06 21:30 26.41307 -18.49903 41037 ft 460 kts 27°
2026-05-06 21:31 26.46682 -18.46021 41034 ft 460 kts 27°
2026-05-06 21:31 26.52057 -18.42133 41038 ft 460 kts 27°
2026-05-06 21:32 26.57400 -18.38265 41033 ft 460 kts 27°
2026-05-06 21:32 26.65473 -18.32411 41035 ft 461 kts 27°
2026-05-06 21:33 26.70851 -18.28506 41034 ft 461 kts 27°
2026-05-06 21:33 26.76219 -18.24603 41034 ft 461 kts 27°
2026-05-06 21:34 26.81595 -18.20690 41034 ft 460 kts 27°
2026-05-06 21:34 26.86936 -18.16798 41049 ft 460 kts 27°
2026-05-06 21:35 26.92306 -18.12880 41037 ft 459 kts 27°
2026-05-06 21:35 26.97654 -18.08974 41049 ft 459 kts 27°
2026-05-06 21:36 27.03013 -18.05056 41037 ft 460 kts 28°
2026-05-06 21:36 27.08378 -18.01130 41034 ft 460 kts 28°
2026-05-06 21:37 27.13733 -17.97204 41037 ft 460 kts 28°
2026-05-06 21:37 27.19060 -17.93295 41037 ft 460 kts 28°
2026-05-06 21:38 27.24409 -17.89365 41038 ft 459 kts 28°
2026-05-06 21:38 27.29757 -17.85431 41036 ft 459 kts 28°
2026-05-06 21:39 27.35095 -17.81501 41037 ft 459 kts 28°
2026-05-06 21:39 27.40441 -17.77560 41041 ft 459 kts 28°
2026-05-06 21:40 27.45778 -17.73621 41052 ft 459 kts 28°
2026-05-06 21:40 27.51119 -17.69675 41059 ft 460 kts 28°
2026-05-06 21:41 27.56481 -17.65708 41040 ft 459 kts 28°
2026-05-06 21:41 27.61820 -17.61753 41040 ft 459 kts 28°
2026-05-06 21:42 27.67131 -17.57815 41042 ft 459 kts 28°
2026-05-06 21:42 27.72466 -17.53854 41040 ft 459 kts 28°
2026-05-06 21:43 27.77812 -17.49881 41046 ft 459 kts 28°
2026-05-06 21:43 27.83156 -17.45904 41068 ft 459 kts 28°
2026-05-06 21:44 27.87592 -17.42599 41042 ft 459 kts 28°
2026-05-06 21:44 27.92925 -17.38621 41051 ft 459 kts 28°
2026-05-06 21:45 27.98269 -17.34632 41045 ft 460 kts 28°
2026-05-06 21:45 28.03804 -17.31081 41046 ft 457 kts 23°
2026-05-06 21:46 28.09427 -17.27708 41046 ft 457 kts 23°
2026-05-06 21:46 28.15027 -17.24392 41065 ft 457 kts 23°
2026-05-06 21:47 28.20650 -17.21055 41047 ft 456 kts 23°
2026-05-06 21:47 28.26267 -17.17710 41045 ft 455 kts 23°
2026-05-06 21:48 28.31873 -17.14365 41045 ft 455 kts 23°
2026-05-06 21:48 28.37488 -17.11009 41045 ft 455 kts 23°
2026-05-06 21:49 28.43092 -17.07655 41048 ft 455 kts 23°
2026-05-06 21:49 28.48701 -17.04295 41066 ft 455 kts 23°
2026-05-06 21:50 28.54306 -17.00933 41059 ft 455 kts 23°
2026-05-06 21:50 28.59912 -16.97568 41058 ft 456 kts 23°
2026-05-06 21:51 28.65491 -16.94214 41061 ft 456 kts 23°
2026-05-06 21:51 28.71104 -16.90835 41064 ft 456 kts 23°
2026-05-06 21:52 28.76716 -16.87453 41061 ft 455 kts 23°
2026-05-06 21:52 28.82309 -16.84077 41061 ft 453 kts 23°
2026-05-06 21:53 28.87859 -16.80724 41071 ft 453 kts 23°
2026-05-06 21:53 28.93425 -16.77358 41071 ft 453 kts 23°
2026-05-06 21:54 28.98999 -16.73982 41086 ft 453 kts 23°
2026-05-06 21:54 29.04573 -16.70602 41066 ft 453 kts 23°
2026-05-06 21:55 29.10106 -16.67243 41074 ft 453 kts 24°
2026-05-06 21:55 29.15676 -16.63857 41077 ft 452 kts 24°
2026-05-06 21:56 29.21244 -16.60468 41077 ft 452 kts 24°
2026-05-06 21:56 29.26799 -16.57083 41082 ft 452 kts 24°
2026-05-06 21:57 29.32352 -16.53694 41078 ft 452 kts 24°
2026-05-06 21:57 29.37883 -16.50315 41082 ft 452 kts 23°
2026-05-06 21:58 29.43409 -16.46933 41080 ft 449 kts 23°
2026-05-06 21:58 29.48923 -16.43556 41083 ft 449 kts 23°
2026-05-06 21:59 29.54414 -16.40190 41083 ft 449 kts 23°
2026-05-06 21:59 29.59928 -16.36805 41086 ft 449 kts 23°
2026-05-06 22:00 29.65442 -16.33416 41092 ft 449 kts 24°
2026-05-06 22:00 29.70963 -16.30018 41088 ft 451 kts 24°
2026-05-06 22:01 29.76505 -16.26602 41089 ft 451 kts 24°
2026-05-06 22:01 29.82040 -16.23186 41088 ft 451 kts 24°
2026-05-06 22:02 29.87534 -16.19791 41089 ft 451 kts 24°
2026-05-06 22:02 29.93084 -16.16357 41089 ft 451 kts 24°
2026-05-06 22:03 29.98620 -16.12928 41091 ft 450 kts 24°
2026-05-06 22:03 30.04121 -16.09515 41092 ft 449 kts 24°
2026-05-06 22:04 30.09623 -16.06098 41097 ft 449 kts 24°
2026-05-06 22:04 30.15125 -16.02678 41097 ft 449 kts 24°
2026-05-06 22:05 30.20627 -15.99253 41112 ft 449 kts 24°
2026-05-06 22:05 30.26141 -15.95816 41112 ft 451 kts 24°
2026-05-06 22:06 30.31634 -15.92388 41099 ft 451 kts 24°
2026-05-06 22:06 30.37145 -15.88942 41099 ft 450 kts 24°
2026-05-06 22:07 30.42661 -15.85490 41097 ft 450 kts 24°
2026-05-06 22:07 30.48182 -15.82031 41097 ft 451 kts 24°
2026-05-06 22:08 30.53693 -15.78573 41099 ft 451 kts 24°
2026-05-06 22:08 30.59207 -15.75108 41099 ft 449 kts 24°
2026-05-06 22:09 30.64692 -15.71656 41097 ft 447 kts 24°
2026-05-06 22:09 30.70123 -15.68235 41100 ft 447 kts 24°
2026-05-06 22:10 30.75600 -15.64782 41102 ft 447 kts 24°
2026-05-06 22:10 30.81098 -15.61311 41103 ft 450 kts 24°
2026-05-06 22:11 30.86621 -15.57820 41099 ft 451 kts 24°
2026-05-06 22:11 30.92094 -15.54352 41097 ft 449 kts 24°
2026-05-06 22:12 30.97586 -15.50869 41098 ft 449 kts 24°
2026-05-06 22:12 31.03069 -15.47389 41102 ft 449 kts 24°
2026-05-06 22:13 31.08560 -15.43898 41101 ft 449 kts 24°
2026-05-06 22:13 31.14048 -15.40405 41112 ft 449 kts 23°
2026-05-06 22:14 31.19486 -15.36937 41104 ft 448 kts 23°
2026-05-06 22:14 31.24951 -15.33449 41098 ft 447 kts 23°
2026-05-06 22:15 31.30411 -15.29927 41097 ft 448 kts 25°
2026-05-06 22:15 31.35697 -15.25999 41098 ft 451 kts 28°
2026-05-06 22:16 31.38048 -15.24144 41098 ft 451 kts 29°
2026-05-06 22:16 31.43252 -15.20015 41113 ft 451 kts 28°
2026-05-06 22:17 31.48458 -15.15925 41097 ft 450 kts 28°
2026-05-06 22:17 31.53679 -15.11857 41097 ft 450 kts 28°
2026-05-06 22:18 31.58902 -15.07793 41096 ft 450 kts 28°
2026-05-06 22:18 31.64081 -15.03757 41097 ft 450 kts 28°
2026-05-06 22:19 31.69301 -14.99682 41097 ft 450 kts 28°
2026-05-06 22:19 31.74520 -14.95601 41108 ft 450 kts 28°
2026-05-06 22:20 31.79725 -14.91525 41087 ft 450 kts 28°
2026-05-06 22:20 31.84949 -14.87430 41103 ft 451 kts 28°
2026-05-06 22:21 31.90134 -14.83359 41100 ft 451 kts 28°
2026-05-06 22:21 31.95354 -14.79253 41102 ft 451 kts 28°
2026-05-06 22:22 32.00571 -14.75146 41101 ft 451 kts 28°
2026-05-06 22:22 32.05795 -14.71027 41096 ft 451 kts 28°
2026-05-06 22:23 32.10971 -14.66934 41099 ft 438 kts 28°
2026-05-06 22:23 32.15980 -14.62963 41098 ft 424 kts 27°
2026-05-06 22:24 32.18397 -14.61043 41096 ft 412 kts 27°
2026-05-06 22:24 32.20737 -14.59183 41100 ft 400 kts 27°
2026-05-06 22:24 32.25323 -14.55553 41103 ft 399 kts 27°
2026-05-06 22:25 32.29961 -14.51896 41093 ft 406 kts 27°
2026-05-06 22:25 32.34708 -14.48135 41087 ft 414 kts 27°
2026-05-06 22:26 32.39545 -14.44289 41090 ft 422 kts 27°
2026-05-06 22:26 32.44456 -14.40375 41095 ft 429 kts 27°
2026-05-06 22:27 32.49455 -14.36386 41087 ft 437 kts 27°
2026-05-06 22:27 32.54541 -14.32323 41089 ft 444 kts 28°
2026-05-06 22:28 32.59678 -14.28212 41091 ft 451 kts 28°
2026-05-06 22:28 32.64917 -14.24012 41091 ft 453 kts 28°
2026-05-06 22:29 32.70130 -14.19824 41092 ft 453 kts 28°
2026-05-06 22:29 32.75354 -14.15625 41088 ft 453 kts 28°
2026-05-06 22:30 32.79696 -14.12132 41091 ft 453 kts 28°
2026-05-06 22:30 32.85765 -14.07242 41092 ft 453 kts 28°
2026-05-06 22:31 32.90982 -14.03033 41089 ft 454 kts 28°
2026-05-06 22:31 32.96219 -13.98802 41086 ft 455 kts 28°
2026-05-06 22:32 33.00578 -13.95275 41089 ft 456 kts 28°
2026-05-06 22:32 33.05834 -13.91016 41083 ft 456 kts 28°
2026-05-06 22:33 33.11072 -13.86765 41086 ft 456 kts 28°
2026-05-06 22:33 33.16308 -13.82507 41087 ft 457 kts 28°
2026-05-06 22:34 33.21527 -13.78235 41085 ft 458 kts 28°
2026-05-06 22:34 33.26778 -13.73921 41078 ft 458 kts 28°
2026-05-06 22:35 33.32031 -13.69601 41078 ft 458 kts 28°
2026-05-06 22:35 33.37283 -13.65278 41076 ft 458 kts 28°
2026-05-06 22:36 33.42528 -13.60955 41072 ft 458 kts 28°
2026-05-06 22:36 33.47779 -13.56620 41097 ft 458 kts 28°
2026-05-06 22:37 33.53042 -13.52270 41073 ft 458 kts 28°
2026-05-06 22:37 33.58291 -13.47925 41075 ft 459 kts 29°
2026-05-06 22:38 33.63521 -13.43589 41073 ft 460 kts 29°
2026-05-06 22:38 33.68805 -13.39201 41072 ft 460 kts 29°
2026-05-06 22:39 33.74073 -13.34818 41072 ft 460 kts 29°
2026-05-06 22:39 33.79343 -13.30428 41073 ft 461 kts 28°
2026-05-06 22:40 33.84610 -13.26035 41069 ft 461 kts 28°
2026-05-06 22:40 33.89846 -13.21660 41070 ft 461 kts 28°
2026-05-06 22:41 33.97736 -13.15055 41070 ft 461 kts 28°
2026-05-06 22:42 34.03006 -13.10635 41076 ft 461 kts 29°
2026-05-06 22:42 34.08273 -13.06211 41067 ft 462 kts 29°
2026-05-06 22:43 34.13553 -13.01769 41063 ft 462 kts 29°
2026-05-06 22:43 34.18834 -12.97320 41064 ft 462 kts 29°
2026-05-06 22:44 34.24103 -12.92872 41061 ft 462 kts 29°
2026-05-06 22:44 34.29378 -12.88432 41061 ft 462 kts 29°
2026-05-06 22:45 34.34641 -12.84026 41061 ft 462 kts 28°
2026-05-06 22:45 34.39958 -12.79572 41061 ft 462 kts 28°
2026-05-06 22:46 34.45214 -12.75159 41059 ft 462 kts 29°
2026-05-06 22:46 34.48906 -12.72053 41062 ft 462 kts 29°
2026-05-06 22:47 34.52799 -12.68774 41061 ft 462 kts 29°
2026-05-06 22:47 34.57611 -12.64716 41061 ft 462 kts 29°
2026-05-06 22:48 34.62810 -12.60325 41053 ft 462 kts 29°
2026-05-06 22:48 34.68009 -12.55929 41059 ft 461 kts 29°
2026-05-06 22:49 34.73264 -12.51476 41050 ft 462 kts 29°
2026-05-06 22:49 34.78544 -12.46996 41046 ft 462 kts 29°
2026-05-06 22:50 34.83807 -12.42522 41049 ft 462 kts 29°
2026-05-06 22:50 34.89064 -12.38046 41059 ft 455 kts 30°
2026-05-06 22:51 34.94272 -12.33605 41050 ft 460 kts 30°
2026-05-06 22:51 34.99550 -12.29103 41048 ft 463 kts 30°
2026-05-06 22:52 35.03921 -12.25363 41046 ft 462 kts 30°
2026-05-06 22:52 35.06476 -12.23175 41044 ft 462 kts 30°
2026-05-06 22:53 35.11702 -12.18695 41047 ft 462 kts 30°
2026-05-06 22:53 35.16966 -12.14176 41047 ft 462 kts 30°
2026-05-06 22:54 35.22229 -12.09650 41045 ft 462 kts 30°
2026-05-06 22:54 35.27485 -12.05123 41042 ft 462 kts 30°
2026-05-06 22:55 35.32749 -12.00582 41040 ft 463 kts 30°
2026-05-06 22:55 35.38018 -11.96030 41039 ft 464 kts 30°
2026-05-06 22:56 35.43294 -11.91463 41040 ft 464 kts 30°
2026-05-06 22:56 35.48562 -11.86896 41034 ft 464 kts 30°
2026-05-06 22:57 35.53836 -11.82316 41034 ft 464 kts 30°
2026-05-06 22:57 35.59103 -11.77735 41034 ft 464 kts 30°
2026-05-06 22:58 35.64339 -11.73173 41032 ft 464 kts 30°
2026-05-06 22:58 35.69604 -11.68579 41038 ft 464 kts 31°
2026-05-06 22:59 35.74871 -11.63975 41031 ft 464 kts 31°
2026-05-06 22:59 35.80135 -11.59367 41028 ft 464 kts 31°
2026-05-06 23:00 35.85398 -11.54751 41029 ft 464 kts 31°
2026-05-06 23:00 35.90660 -11.50127 41029 ft 464 kts 31°
2026-05-06 23:01 35.95927 -11.45524 41041 ft 463 kts 27°
2026-05-06 23:01 36.01440 -11.41473 41027 ft 460 kts 25°
2026-05-06 23:02 36.06984 -11.37506 41023 ft 460 kts 25°
2026-05-06 23:02 36.12526 -11.33548 41024 ft 460 kts 25°
2026-05-06 23:03 36.18073 -11.29585 41024 ft 461 kts 25°
2026-05-06 23:03 36.23618 -11.25617 41021 ft 463 kts 26°
2026-05-06 23:04 36.29200 -11.21613 41019 ft 463 kts 26°
2026-05-06 23:04 36.34779 -11.17607 41022 ft 463 kts 26°
2026-05-06 23:05 36.40352 -11.13598 41020 ft 463 kts 26°
2026-05-06 23:05 36.45925 -11.09583 41023 ft 463 kts 26°
2026-05-06 23:06 36.51498 -11.05561 41025 ft 463 kts 26°
2026-05-06 23:06 36.57070 -11.01534 41014 ft 464 kts 26°
2026-05-06 23:07 36.62646 -10.97496 41013 ft 463 kts 26°
2026-05-06 23:07 36.68227 -10.93447 41027 ft 464 kts 26°
2026-05-06 23:08 36.73821 -10.89384 41032 ft 467 kts 26°
2026-05-06 23:08 36.79403 -10.85321 41012 ft 468 kts 26°
2026-05-06 23:09 36.85027 -10.81221 41011 ft 468 kts 26°
2026-05-06 23:09 36.90651 -10.77113 41007 ft 468 kts 26°
2026-05-06 23:10 36.96278 -10.72996 40897 ft 467 kts 26°
2026-05-06 23:10 36.99068 -10.70951 40658 ft 462 kts 26°
2026-05-06 23:10 37.01823 -10.68929 40386 ft 456 kts 26°
2026-05-06 23:10 37.04560 -10.66921 39927 ft 455 kts 27°
2026-05-06 23:11 37.07304 -10.64908 39231 ft 460 kts 27°
2026-05-06 23:11 37.10062 -10.62884 38390 ft 468 kts 26°
2026-05-06 23:11 37.12882 -10.60810 37562 ft 471 kts 26°
2026-05-06 23:11 37.15710 -10.58726 36983 ft 469 kts 25°
2026-05-06 23:12 37.18511 -10.56659 36481 ft 466 kts 25°
2026-05-06 23:12 37.21302 -10.54599 35930 ft 463 kts 25°
2026-05-06 23:12 37.24075 -10.52551 35346 ft 462 kts 24°
2026-05-06 23:12 37.26839 -10.50509 34746 ft 461 kts 24°
2026-05-06 23:13 37.29613 -10.48459 34022 ft 463 kts 23°
2026-05-06 23:13 37.32388 -10.46407 33174 ft 465 kts 23°
2026-05-06 23:13 37.35181 -10.44339 32379 ft 465 kts 24°
2026-05-06 23:13 37.37473 -10.42641 31729 ft 465 kts 24°
2026-05-06 23:14 37.40238 -10.40590 30942 ft 465 kts 24°
2026-05-06 23:14 37.42978 -10.38553 30417 ft 460 kts 24°
2026-05-06 23:14 37.45721 -10.36511 29826 ft 455 kts 24°
2026-05-06 23:14 37.48425 -10.34498 29198 ft 450 kts 24°
2026-05-06 23:15 37.51116 -10.32493 28648 ft 445 kts 25°
2026-05-06 23:15 37.53762 -10.30521 28036 ft 440 kts 25°
2026-05-06 23:15 37.56388 -10.28563 27474 ft 435 kts 25°
2026-05-06 23:15 37.58966 -10.26639 26917 ft 430 kts 25°
2026-05-06 23:16 37.60609 -10.25412 26541 ft 428 kts 25°
2026-05-06 23:16 37.63998 -10.22880 25782 ft 423 kts 26°
2026-05-06 23:16 37.65571 -10.21704 25434 ft 421 kts 26°
2026-05-06 23:16 37.68078 -10.19828 24897 ft 418 kts 26°
2026-05-06 23:17 37.70583 -10.17953 24317 ft 417 kts 27°
2026-05-06 23:17 37.73008 -10.15936 23683 ft 421 kts 36°
2026-05-06 23:17 37.75253 -10.13580 23102 ft 418 kts 37°
2026-05-06 23:17 37.77470 -10.11224 22516 ft 414 kts 37°
2026-05-06 23:18 37.79659 -10.08886 21962 ft 410 kts 37°
2026-05-06 23:18 37.81843 -10.06562 21400 ft 406 kts 37°
2026-05-06 23:18 37.83993 -10.04280 20864 ft 402 kts 37°
2026-05-06 23:18 37.86123 -10.02024 20311 ft 398 kts 37°
2026-05-06 23:19 37.88242 -9.99779 19770 ft 394 kts 38°
2026-05-06 23:19 37.90314 -9.97585 19223 ft 391 kts 37°
2026-05-06 23:19 37.92392 -9.95384 18697 ft 388 kts 37°
2026-05-06 23:19 37.94464 -9.93188 18143 ft 386 kts 38°
2026-05-06 23:20 37.96509 -9.91019 17556 ft 382 kts 38°
2026-05-06 23:20 37.98531 -9.88872 17027 ft 378 kts 37°
2026-05-06 23:20 38.00538 -9.86741 16501 ft 374 kts 38°
2026-05-06 23:20 38.02518 -9.84636 15978 ft 370 kts 38°
2026-05-06 23:21 38.04487 -9.82542 15430 ft 368 kts 37°
2026-05-06 23:21 38.06442 -9.80462 14904 ft 366 kts 38°
2026-05-06 23:21 38.08395 -9.78381 14386 ft 364 kts 38°
2026-05-06 23:21 38.10325 -9.76324 13867 ft 362 kts 38°
2026-05-06 23:22 38.12252 -9.74269 13301 ft 360 kts 39°
2026-05-06 23:22 38.14160 -9.72232 12779 ft 355 kts 38°
2026-05-06 23:22 38.16040 -9.70225 12283 ft 351 kts 38°
2026-05-06 23:22 38.17835 -9.68308 11793 ft 348 kts 39°
2026-05-06 23:23 38.19667 -9.66347 11289 ft 344 kts 39°
2026-05-06 23:23 38.21487 -9.64399 10986 ft 335 kts 40°
2026-05-06 23:23 38.23222 -9.62540 10906 ft 318 kts 40°
2026-05-06 23:23 38.24875 -9.60767 10786 ft 305 kts 40°
2026-05-06 23:24 38.26465 -9.59062 10675 ft 293 kts 40°
2026-05-06 23:24 38.28028 -9.57386 10274 ft 294 kts 40°
2026-05-06 23:24 38.29595 -9.55704 9859 ft 295 kts 40°
2026-05-06 23:24 38.31158 -9.54024 9455 ft 293 kts 40°
2026-05-06 23:25 38.32687 -9.52381 9093 ft 290 kts 40°
2026-05-06 23:25 38.34221 -9.50731 8708 ft 287 kts 40°
2026-05-06 23:25 38.35743 -9.49093 8338 ft 286 kts 41°
2026-05-06 23:25 38.37263 -9.47456 7958 ft 285 kts 41°
2026-05-06 23:26 38.38774 -9.45828 7574 ft 284 kts 42°
2026-05-06 23:26 38.40281 -9.44204 7210 ft 285 kts 43°
2026-05-06 23:26 38.41787 -9.42578 6818 ft 285 kts 42°
2026-05-06 23:26 38.43297 -9.40949 6452 ft 285 kts 42°
2026-05-06 23:27 38.44810 -9.39315 6064 ft 285 kts 42°
2026-05-06 23:27 38.46314 -9.37687 5664 ft 283 kts 41°
2026-05-06 23:27 38.47800 -9.36080 5469 ft 273 kts 41°
2026-05-06 23:27 38.48715 -9.35090 5437 ft 264 kts 41°
2026-05-06 23:28 38.49738 -9.33984 5376 ft 255 kts 40°
2026-05-06 23:28 38.51067 -9.32546 5273 ft 246 kts 40°
2026-05-06 23:28 38.52352 -9.31155 5151 ft 238 kts 40°
2026-05-06 23:28 38.53589 -9.29813 5049 ft 230 kts 40°
2026-05-06 23:29 38.54789 -9.28512 4941 ft 222 kts 40°
2026-05-06 23:29 38.55956 -9.27246 4741 ft 220 kts 39°
2026-05-06 23:29 38.57113 -9.25991 4531 ft 218 kts 39°
2026-05-06 23:29 38.58250 -9.24756 4409 ft 209 kts 39°
2026-05-06 23:30 38.59372 -9.23691 4350 ft 194 kts 27°
2026-05-06 23:30 38.60562 -9.22948 4075 ft 190 kts 21°
2026-05-06 23:30 38.61091 -9.22665 3959 ft 188 kts 20°
2026-05-06 23:31 38.61924 -9.22233 3878 ft 180 kts 20°
2026-05-06 23:31 38.63039 -9.21643 3786 ft 164 kts 18°
2026-05-06 23:31 38.64042 -9.21111 3527 ft 152 kts 19°
2026-05-06 23:31 38.65029 -9.20590 3053 ft 155 kts 19°
2026-05-06 23:32 38.66029 -9.20059 2653 ft 152 kts 19°
2026-05-06 23:32 38.66962 -9.19553 2453 ft 140 kts 20°
2026-05-06 23:32 38.67832 -9.19091 2244 ft 131 kts 19°
2026-05-06 23:32 38.68655 -9.18654 2068 ft 125 kts 19°
2026-05-06 23:33 38.69449 -9.18232 1898 ft 124 kts 18°
2026-05-06 23:33 38.70241 -9.17810 1733 ft 123 kts 18°
2026-05-06 23:33 38.71037 -9.17386 1565 ft 125 kts 19°
2026-05-06 23:33 38.71841 -9.16956 1407 ft 126 kts 19°
2026-05-06 23:34 38.72650 -9.16523 1223 ft 125 kts 18°
2026-05-06 23:34 38.73461 -9.16091 1053 ft 126 kts 19°
2026-05-06 23:34 38.74270 -9.15660 888 ft 126 kts 18°
2026-05-06 23:34 38.75061 -9.15228 723 ft 125 kts 19°
2026-05-06 23:35 38.75864 -9.14799 535 ft 124 kts 17°
2026-05-06 23:35 38.76661 -9.14365 389 ft 125 kts 17°
2026-05-06 23:35 38.77368 -9.13999 370 ft 85 kts 22°
2026-05-06 23:35 38.77746 -9.13798 372 ft 42 kts 22°
2026-05-06 23:36 38.78001 -9.13668 371 ft 37 kts 25°
2026-05-06 23:36 38.78217 -9.13535 375 ft 32 kts 32°
2026-05-06 23:36 38.78369 -9.13352 371 ft 23 kts 57°
2026-05-06 23:36 38.78364 -9.13275 372 ft 6 kts 130°
2026-05-06 23:37 38.78328 -9.13265 389 ft 13 kts 187°
2026-05-06 23:37 38.78217 -9.13318 367 ft 19 kts 202°
2026-05-06 23:37 38.78091 -9.13385 366 ft 21 kts 202°
2026-05-06 23:37 38.77951 -9.13461 365 ft 23 kts 202°
2026-05-06 23:38 38.77796 -9.13544 365 ft 25 kts 203°
2026-05-06 23:38 38.77632 -9.13631 368 ft 26 kts 203°
2026-05-06 23:38 38.77469 -9.13718 368 ft 26 kts 203°
2026-05-06 23:38 38.77291 -9.13814 365 ft 29 kts 202°
2026-05-06 23:39 38.77108 -9.13913 365 ft 28 kts 204°
2026-05-06 23:39 38.77058 -9.13934 362 ft 1 kts 174°
2026-05-06 23:39 38.77036 -9.13904 361 ft 8 kts 131°
2026-05-06 23:39 38.76992 -9.13869 361 ft 5 kts 170°
2026-05-06 23:40 38.76926 -9.13853 361 ft 13 kts 169°
2026-05-06 23:40 38.76881 -9.13842 358 ft 1 kts 169°
2026-05-06 23:40 38.76870 -9.13840 355 ft 2 kts 172°
2026-05-06 23:40 38.76855 -9.13853 360 ft 5 kts 224°
2026-05-06 23:41 38.76848 -9.13889 358 ft 7 kts 261°
2026-05-06 23:41 38.76841 -9.13943 359 ft 6 kts 257°
2026-05-06 23:41 38.76840 -9.13943 359 ft 0 kts 257°